{"data":{"norad_id":45711,"epoch":"2026-05-25T01:52:56.481600Z","epoch_age_seconds":78660,"freshness":"FRESH","line1":"1 45711U 20035BG  26145.07843150  .00049618  00000+0  46037-3 0  9994","line2":"2 45711  53.0448   7.8361 0007069  69.4301 290.7471 15.66958443331305","mean_motion":15.66958443,"eccentricity":0.0007069,"inclination_deg":53.0448,"raan_deg":7.8361,"arg_perigee_deg":69.4301,"mean_anomaly_deg":290.7471,"bstar":0.00046037,"rev_number":33130,"period_min":91.89777855519,"perigee_km":362.84360302885,"apogee_km":372.38074320981,"semimajor_km":6745.7491731193,"source":"CELESTRAK","updated_at":"2026-05-25T13:38:16.431634Z"}}